Tracking 23726 objects as of 24-Sep-2021
HD Live streaming from Space Station
objects crossing your sky now

DMSP 5D-2 F13 DEB

Track DMSP 5D-2 F13 DEB now!
10-day predictions


NORAD ID: 42331
Int'l Code: 1995-015JZ
Perigee: 808.1 km
Apogee: 818.7 km
Inclination: 98.7 °
Period: 101.0 minutes
Semi major axis: 7184 km
RCS: Unknown
Launch date: March 24, 1995
Source: United States (US)
Launch site: AIR FORCE WESTERN TEST RANGE (AFWTR)

Note: This is SATELLITE DEBRIS
aabbcc
Your satellite tracking list
Your tracking list is empty




NASA's NSSDC Master Catalog

Two Line Element Set (TLE):
1 42331U 95015JZ  21265.27844864  .00001781  00000-0  76981-3 0  9993
2 42331  98.7384 284.7849 0007397 215.6863 144.3823 14.25664131304019
Source of the keplerian elements: AFSPC